• In Hungary
  • List of Countries
  • For 7 days
  • Water Temperature
  • Satellite Maps
  • Weather Map
  • News
  • Weather Widgets
  • user-avatar
    Login

    Hourly Weather Novomuraptalovo

    Today, 22 May, Tuesday

    Time Temperature Precipitation Wind Pressure Humidity
    00:00 +10°C° 0 mm 6 mps 754 mmHg 75%
    01:00 +9°C° 0 mm 6 mps 754 mmHg 75%
    02:00 +9°C° 0 mm 5 mps 754 mmHg 76%
    03:00 +8°C° 0 mm 5 mps 755 mmHg 77%
    04:00 +7°C° 0 mm 5 mps 755 mmHg 78%
    05:00 +8°C° 0 mm 5 mps 755 mmHg 73%
    06:00 +9°C° 0 mm 6 mps 756 mmHg 68%
    07:00 +10°C° 0 mm 6 mps 756 mmHg 64%
    08:00 +13°C° 0 mm 6 mps 756 mmHg 58%
    09:00 +15°C° 0 mm 6 mps 756 mmHg 52%
    10:00 +17°C° 0 mm 6 mps 756 mmHg 46%
    11:00 +19°C° 0 mm 6 mps 756 mmHg 44%
    12:00 +20°C° 0 mm 6 mps 756 mmHg 43%
    13:00 +21°C° 0 mm 5 mps 756 mmHg 41%
    14:00 +21°C° 0 mm 5 mps 756 mmHg 42%
    15:00 +21°C° 0 mm 5 mps 756 mmHg 43%
    16:00 +21°C° 0 mm 5 mps 756 mmHg 45%
    17:00 +20°C° 0 mm 5 mps 756 mmHg 50%
    18:00 +20°C° 0 mm 4 mps 756 mmHg 55%
    19:00 +19°C° 0 mm 3 mps 756 mmHg 60%
    20:00 +18°C° 0 mm 3 mps 756 mmHg 64%
    21:00 +16°C° 0 mm 2 mps 757 mmHg 68%
    22:00 +15°C° 0 mm 2 mps 757 mmHg 72%
    23:00 +14°C° 0 mm 2 mps 757 mmHg 74%

    Tomorrow, 23 May, Wednesday

    Time Temperature Precipitation Wind Pressure Humidity
    00:00 +14°C° 0 mm 2 mps 757 mmHg 76%
    01:00 +14°C° 0 mm 2 mps 757 mmHg 78%
    02:00 +13°C° 0 mm 2 mps 757 mmHg 79%
    03:00 +13°C° 0 mm 2 mps 757 mmHg 81%
    04:00 +13°C° 0 mm 2 mps 757 mmHg 82%
    05:00 +14°C° 0 mm 2 mps 758 mmHg 78%
    06:00 +15°C° 0 mm 2 mps 758 mmHg 74%
    07:00 +17°C° 0 mm 2 mps 758 mmHg 71%
    08:00 +19°C° 0 mm 2 mps 758 mmHg 65%
    09:00 +21°C° 0 mm 2 mps 758 mmHg 60%
    10:00 +24°C° 0 mm 1 mps 758 mmHg 54%
    11:00 +25°C° 0 mm 1 mps 758 mmHg 51%
    12:00 +26°C° 0 mm 2 mps 758 mmHg 47%
    13:00 +27°C° 0 mm 2 mps 757 mmHg 43%
    14:00 +27°C° 0 mm 2 mps 757 mmHg 43%
    15:00 +27°C° 0 mm 2 mps 757 mmHg 42%
    16:00 +28°C° 0 mm 2 mps 757 mmHg 42%
    17:00 +27°C° 0 mm 2 mps 756 mmHg 46%
    18:00 +26°C° 0 mm 2 mps 756 mmHg 51%
    19:00 +25°C° 0 mm 2 mps 756 mmHg 56%
    20:00 +23°C° 0 mm 2 mps 756 mmHg 59%
    21:00 +21°C° 0 mm 2 mps 756 mmHg 62%
    22:00 +20°C° 0 mm 1 mps 756 mmHg 65%
    23:00 +19°C° 0 mm 1 mps 755 mmHg 67%

    Day after tomorrow, 24 May, Thursday

    Time Temperature Precipitation Wind Pressure Humidity
    00:00 +19°C° 0 mm 1 mps 755 mmHg 69%
    01:00 +18°C° 0 mm 1 mps 755 mmHg 71%
    02:00 +18°C° 0 mm 1 mps 755 mmHg 72%
    03:00 +18°C° 0 mm 1 mps 755 mmHg 73%
    04:00 +16°C° 0 mm 2 mps 754 mmHg 74%
    05:00 +18°C° 0 mm 2 mps 754 mmHg 71%
    06:00 +19°C° 0 mm 2 mps 754 mmHg 68%
    07:00 +20°C° 0 mm 2 mps 754 mmHg 65%
    08:00 +22°C° 0 mm 3 mps 754 mmHg 59%
    09:00 +25°C° 0 mm 3 mps 753 mmHg 54%
    10:00 +27°C° 0 mm 4 mps 753 mmHg 49%
    11:00 +27°C° 0 mm 4 mps 753 mmHg 46%
    12:00 +28°C° 0 mm 5 mps 752 mmHg 43%
    13:00 +28°C° 0 mm 5 mps 752 mmHg 40%
    14:00 +29°C° 0 mm 5 mps 751 mmHg 40%
    15:00 +29°C° 0 mm 5 mps 751 mmHg 40%
    16:00 +29°C° 0 mm 5 mps 750 mmHg 40%
    17:00 +28°C° 0 mm 4 mps 750 mmHg 45%
    18:00 +26°C° 0 mm 3 mps 750 mmHg 50%
    19:00 +25°C° 0 mm 3 mps 749 mmHg 55%
    20:00 +24°C° 0 mm 2 mps 749 mmHg 57%
    21:00 +21°C° 0 mm 2 mps 749 mmHg 58%
    22:00 +20°C° 0 mm 2 mps 749 mmHg 60%
    23:00 +19°C° 0 mm 2 mps 748 mmHg 62%

    25 May, Friday

    Time Temperature Precipitation Wind Pressure Humidity
    00:00 +19°C° 0 mm 2 mps 748 mmHg 65%
    01:00 +18°C° 0 mm 2 mps 748 mmHg 67%
    02:00 +17°C° 0 mm 2 mps 747 mmHg 72%
    03:00 +17°C° 0 mm 2 mps 747 mmHg 78%
    04:00 +16°C° 0 mm 2 mps 747 mmHg 83%
    05:00 +17°C° 0 mm 2 mps 747 mmHg 81%
    06:00 +18°C° 0 mm 2 mps 747 mmHg 79%
    07:00 +19°C° 0 mm 2 mps 747 mmHg 78%
    08:00 +20°C° 0.1 mm 3 mps 747 mmHg 75%
    09:00 +20°C° 0.1 mm 4 mps 747 mmHg 72%
    10:00 +21°C° 0.1 mm 5 mps 747 mmHg 69%
    11:00 +20°C° 0.5 mm 5 mps 747 mmHg 73%
    12:00 +19°C° 0.5 mm 4 mps 747 mmHg 76%
    13:00 +18°C° 0.5 mm 4 mps 746 mmHg 79%
    14:00 +18°C° 1 mm 3 mps 746 mmHg 79%
    15:00 +17°C° 1 mm 3 mps 746 mmHg 79%
    16:00 +17°C° 1 mm 3 mps 746 mmHg 79%
    17:00 +16°C° 0.1 mm 3 mps 746 mmHg 76%
    18:00 +15°C° 0.1 mm 4 mps 746 mmHg 72%
    19:00 +14°C° 0.1 mm 5 mps 746 mmHg 68%
    20:00 +13°C° 0 mm 5 mps 747 mmHg 68%
    21:00 +12°C° 0 mm 5 mps 747 mmHg 67%
    22:00 +10°C° 0 mm 6 mps 747 mmHg 66%
    23:00 +9°C° 0 mm 6 mps 748 mmHg 66%

    26 May, Saturday

    Time Temperature Precipitation Wind Pressure Humidity
    00:00 +8°C° 0 mm 6 mps 748 mmHg 66%
    01:00 +8°C° 0 mm 6 mps 748 mmHg 65%
    02:00 +7°C° 0 mm 6 mps 749 mmHg 64%
    03:00 +5°C° 0 mm 6 mps 749 mmHg 63%
    04:00 +5°C° 0 mm 6 mps 749 mmHg 62%
    05:00 +5°C° 0 mm 7 mps 750 mmHg 60%
    06:00 +6°C° 0 mm 7 mps 750 mmHg 59%
    07:00 +6°C° 0 mm 8 mps 751 mmHg 57%
    08:00 +7°C° 0 mm 8 mps 751 mmHg 54%
    09:00 +8°C° 0 mm 9 mps 751 mmHg 50%
    10:00 +10°C° 0 mm 9 mps 751 mmHg 47%
    11:00 +10°C° 0 mm 9 mps 751 mmHg 45%
    12:00 +10°C° 0 mm 9 mps 752 mmHg 44%
    13:00 +11°C° 0 mm 9 mps 752 mmHg 42%
    14:00 +11°C° 0 mm 9 mps 752 mmHg 42%
    15:00 +11°C° 0 mm 10 mps 752 mmHg 42%
    16:00 +11°C° 0 mm 10 mps 753 mmHg 42%
    17:00 +11°C° 0 mm 9 mps 753 mmHg 45%
    18:00 +10°C° 0 mm 8 mps 754 mmHg 49%
    19:00 +10°C° 0 mm 7 mps 754 mmHg 52%
    20:00 +8°C° 0 mm 6 mps 755 mmHg 56%
    21:00 +7°C° 0 mm 4 mps 755 mmHg 60%
    22:00 +7°C° 0 mm 3 mps 756 mmHg 63%
    23:00 +5°C° 0 mm 3 mps 756 mmHg 66%

    27 May, Sunday

    Time Temperature Precipitation Wind Pressure Humidity
    00:00 +6°C° 0 mm 2 mps 756 mmHg 69%
    01:00 +5°C° 0 mm 2 mps 756 mmHg 72%
    02:00 +5°C° 0 mm 2 mps 756 mmHg 74%
    03:00 +5°C° 0 mm 2 mps 757 mmHg 76%
    04:00 +5°C° 0 mm 2 mps 757 mmHg 78%
    05:00 +5°C° 0 mm 3 mps 757 mmHg 75%
    06:00 +8°C° 0 mm 3 mps 757 mmHg 71%
    07:00 +10°C° 0 mm 3 mps 757 mmHg 67%
    08:00 +12°C° 0 mm 4 mps 757 mmHg 61%
    09:00 +14°C° 0 mm 5 mps 756 mmHg 56%
    10:00 +16°C° 0 mm 5 mps 756 mmHg 51%
    11:00 +17°C° 0 mm 6 mps 755 mmHg 51%
    12:00 +19°C° 0 mm 6 mps 755 mmHg 50%
    13:00 +18°C° 0 mm 7 mps 754 mmHg 50%
    14:00 +18°C° 0.1 mm 8 mps 754 mmHg 54%
    15:00 +18°C° 0.1 mm 8 mps 753 mmHg 58%
    16:00 +18°C° 0.1 mm 9 mps 753 mmHg 61%
    17:00 +18°C° 0 mm 8 mps 753 mmHg 64%
    18:00 +17°C° 0 mm 6 mps 752 mmHg 67%
    19:00 +17°C° 0 mm 5 mps 752 mmHg 70%
    20:00 +16°C° 0 mm 5 mps 751 mmHg 73%
    21:00 +15°C° 0 mm 5 mps 751 mmHg 76%
    22:00 +14°C° 0 mm 5 mps 751 mmHg 78%
    23:00 +14°C° 0 mm 6 mps 750 mmHg 79%
    Show more